Location: Recife
(8.0585°S, 34.8848°W)
Time: 21:10:08
(UTC-03:00)

A-11 Canister half - Pass Details

Date: 20 April 2026
Orbit: 1523 x 1684 km, 47.3° (Epoch: 16 May)

Event Time Altitude Azimuth Distance (km) Brightness Sun altitude
Rises 17:11:18 0° 198° (SSW) 4,692 11.6 0.1°
Reaches altitude 10° 17:15:41 10° 180° (S) 3,726 10.9 -1.0°
Maximum altitude 17:21:49 19° 139° (SE) 3,112 10.2 -2.5°
Drops below altitude 10° 17:28:01 10° 98° (E) 3,792 10.4 -4.0°
Enters shadow 17:31:01 - 85° (E) 4,452 10.8 -4.7°
Sets 17:32:27 0° 80° (E) 4,805 - -5.0°
